This is the latest recevied weather packets stored in our database for station/object N9ALD. If no packets are shown the sender has not sent any weather packets the latest 10 day(s).
| Time | Temp. | Humidity | Pressure | Rain* | Wind** | Luminosity | Snow |
|---|---|---|---|---|---|---|---|
| 1777333602 | 16.11° C | 96% | 1003 hPa | 0 mm | - | 6 W/m² | - |
| 1777333298 | 16.11° C | 96% | 1003.1 hPa | 0 mm | - | 13 W/m² | - |
| 1777332997 | 16.11° C | 96% | 1004.1 hPa | 0 mm | - | 16 W/m² | - |
| 1777332695 | 16.11° C | 97% | 1003.5 hPa | 0 mm | - | 39 W/m² | - |
| 1777332391 | 16.11° C | 97% | 1003.7 hPa | 0 mm | - | 25 W/m² | - |
| 1777332087 | 16.11° C | 97% | 1004 hPa | 0 mm | - | 12 W/m² | - |
| 1777331786 | 16.11° C | 97% | 1003.3 hPa | 0 mm | - | 9 W/m² | - |
| 1777331482 | 16.11° C | 97% | 1003.9 hPa | 0 mm | - | 9 W/m² | - |
| 1777331180 | 16.11° C | 97% | 1004 hPa | 0 mm | - | 12 W/m² | - |
| 1777330877 | 16.11° C | 97% | 1004.2 hPa | 0 mm | - | 13 W/m² | - |
| 1777330574 | 16.11° C | 97% | 1004.4 hPa | 0 mm | - | 15 W/m² | - |
| 1777330271 | 16.11° C | 97% | 1004.5 hPa | 1.78 mm | - | 11 W/m² | - |
| 1777329969 | 16.11° C | 97% | 1004.6 hPa | 1.78 mm | - | 8 W/m² | - |
| 1777329668 | 16.11° C | 97% | 1004.7 hPa | 1.78 mm | - | 7 W/m² | - |
| 1777329365 | 16.11° C | 97% | 1005.6 hPa | 3.05 mm | - | 6 W/m² | - |
| 1777329062 | 16.11° C | 97% | 1005.8 hPa | 1.27 mm | - | 7 W/m² | - |
| 1777328760 | 16.11° C | 97% | 1006.5 hPa | 1.78 mm | - | 5 W/m² | - |
| 1777328457 | 16.11° C | 97% | 1006.7 hPa | 3.05 mm | - | 5 W/m² | - |
| 1777328156 | 16.11° C | 97% | 1006.9 hPa | 3.05 mm | - | 6 W/m² | - |
| 1777327854 | 16.11° C | 97% | 1007 hPa | 3.05 mm | - | 5 W/m² | - |
| 1777327551 | 16.11° C | 97% | 1007.6 hPa | 3.05 mm | - | 6 W/m² | - |
| 1777327249 | 16.11° C | 97% | 1008.1 hPa | 3.05 mm | - | 5 W/m² | - |
| 1777326945 | 16.11° C | 97% | 1007.8 hPa | 1.27 mm | - | 7 W/m² | - |
| 1777326643 | 16.11° C | 97% | 1008 hPa | 3.05 mm | - | 9 W/m² | - |
| 1777326340 | 15.56° C | 97% | 1007.3 hPa | 3.05 mm | - | 11 W/m² | - |
* Rain latest hour (hover to see other rain measurements)
** Current wind speed in m/s (hover to see current wind gust speed)